FW9451 Weather Reports


time (UTC)temp
C
wind
direction
speed
KPH
gust
KPH
rain 1hr
cm
rain 24hr
cm
rain mn
cm
humidity
%
barometer
mb
20260508020104 8 340 3.2 11.3 0.00 0.30 0.28 46 1007.9
20260508014602 9 29 6.4 16.1 0.00 0.33 0.28 44 1007.8
20260508013059 10 38 9.7 20.9 0.00 0.33 0.28 43 1007.7
20260508011552 10 311 6.4 19.3 0.00 0.33 0.28 43 1007.4
20260508010106 10 329 4.8 14.5 0.00 0.33 0.28 42 1007.3
20260508004557 10 338 4.8 16.1 0.00 0.33 0.28 41 1007.0
20260508003053 11 313 3.2 9.7 0.00 0.33 0.28 40 1006.8
20260508001547 11 331 3.2 14.5 0.00 0.33 0.28 39 1006.5
20260508000051 11 321 6.4 16.1 0.00 0.33 0.28 37 1006.4
20260507234550 12 55 4.8 14.5 0.00 0.33 0.28 35 1006.3
20260507233052 12 295 4.8 20.9 0.00 0.33 0.28 34 1006.1
20260507231549 13 275 8.0 22.5 0.00 0.33 0.28 34 1006.0
20260507230047 13 349 8.0 20.9 0.00 0.33 0.28 34 1005.7
20260507224547 13 267 3.2 17.7 0.00 0.33 0.28 36 1005.5
20260507223046 13 327 4.8 19.3 0.00 0.33 0.28 35 1005.3
20260507221548 14 256 14.5 27.4 0.00 0.33 0.28 33 1005.2
20260507220049 15 287 8.0 17.7 0.00 0.33 0.28 32 1005.1
20260507214550 15 277 9.7 27.4 0.00 0.38 0.28 33 1005.2
20260507213051 15 300 12.9 33.8 0.00 0.38 0.28 33 1005.1
20260507211554 15 243 8.0 24.1 0.00 0.38 0.28 34 1005.0
20260507210049 15 274 9.7 24.1 0.00 0.38 0.28 33 1004.9
20260507204548 15 259 14.5 29.0 0.00 0.61 0.28 33 1004.9
20260507203047 15 252 11.3 27.4 0.00 0.61 0.28 33 1004.9
20260507201545 15 244 11.3 25.7 0.00 0.61 0.28 35 1004.9
20260507200051 15 279 8.0 27.4 0.00 0.61 0.28 35 1005.0
20260507194549 15 301 6.4 27.4 0.00 0.86 0.28 34 1005.0
20260507193049 13 273 11.3 32.2 0.00 0.86 0.28 37 1005.0
20260507191553 15 306 16.1 32.2 0.00 0.86 0.28 34 1005.1
20260507190052 15 286 16.1 41.8 0.00 0.86 0.28 35 1005.2
20260507184548 14 275 12.9 33.8 0.00 1.09 0.28 36 1005.3
20260507183049 14 103 12.9 27.4 0.00 1.09 0.28 44 1005.3
20260507181552 15 232 14.5 30.6 0.00 1.09 0.28 42 1005.4
20260507180057 14 306 14.5 33.8 0.00 1.09 0.28 49 1005.4
20260507174604 13 241 17.7 33.8 0.00 1.09 0.28 51 1005.5
20260507173100 14 304 17.7 33.8 0.00 1.09 0.28 48 1005.4
20260507171610 14 235 12.9 30.6 0.00 1.09 0.28 51 1005.3
20260507170054 13 257 12.9 29.0 0.00 1.09 0.28 55 1005.6
20260507164552 13 225 11.3 20.9 0.00 1.09 0.28 54 1005.6
20260507163054 13 240 9.7 20.9 0.00 1.09 0.28 55 1005.6
20260507161550 13 258 8.0 19.3 0.00 1.09 0.28 53 1005.9
20260507160058 13 349 8.0 20.9 0.00 1.09 0.28 53 1006.2
20260507154554 13 189 14.5 27.4 0.00 1.09 0.28 53 1006.5
20260507153101 13 273 8.0 25.7 0.00 1.09 0.28 56 1006.5
20260507151551 13 204 12.9 20.9 0.00 1.09 0.28 54 1006.6
20260507150050 12 245 6.4 17.7 0.00 1.09 0.28 59 1006.6
20260507144553 12 310 4.8 20.9 0.00 1.09 0.28 62 1006.7
20260507143052 12 290 3.2 14.5 0.00 1.09 0.28 65 1006.8
20260507141551 11 267 8.0 20.9 0.00 1.09 0.28 67 1007.1
20260507134550 11 285 8.0 20.9 0.00 1.09 0.28 70 1007.2
20260507133055 10 309 14.5 24.1 0.00 1.09 0.28 68 1007.4
20260507131550 10 264 4.8 12.9 0.00 1.09 0.28 72 1007.4
20260507130104 10 278 6.4 17.7 0.00 1.09 0.28 73 1007.4
20260507124632 10 267 4.8 12.9 0.00 1.09 0.28 72 1007.3
20260507123050 9 335 4.8 14.5 0.00 1.09 0.28 73 1007.5
20260507121549 9 347 8.0 16.1 0.00 1.09 0.28 74 1007.4
20260507120053 8 305 1.6 9.7 0.00 1.09 0.28 81 1007.5
20260507114608 8 216 3.2 12.9 0.00 1.09 0.28 83 1007.5
20260507113057 7 327 4.8 14.5 0.00 1.09 0.28 85 1007.4
20260507111555 7 294 3.2 9.7 0.00 1.09 0.28 87 1007.6
20260507110051 6 273 4.8 12.9 0.00 1.09 0.28 86 1007.8
20260507104557 7 279 1.6 6.4 0.00 1.09 0.28 85 1007.8
20260507103054 7 292 0.0 4.8 0.00 1.09 0.28 85 1007.7
20260507101558 7 295 1.6 8.0 0.00 1.09 0.28 86 1007.5
20260507100056 6 342 1.6 11.3 0.00 1.09 0.28 88 1007.4
20260507094549 6 299 3.2 8.0 0.00 1.09 0.28 89 1007.4
20260507093056 6 269 1.6 8.0 0.00 1.09 0.28 88 1007.1
20260507091552 7 0 1.6 8.0 0.00 1.09 0.28 88 1006.8
20260507090103 7 352 1.6 6.4 0.00 1.09 0.28 89 1007.2
20260507084549 7 0 1.6 8.0 0.00 1.09 0.28 89 1007.0
20260507083048 7 0 3.2 12.9 0.00 1.09 0.28 89 1007.2
20260507081550 7 340 3.2 11.3 0.00 1.09 0.28 89 1006.7
20260507080054 7 348 3.2 14.5 0.00 1.09 0.28 90 1007.0
20260507074610 7 338 3.2 17.7 0.00 1.09 0.28 90 1006.6
20260507073052 8 329 6.4 16.1 0.00 1.09 0.28 92 1006.7
20260507071554 8 0 8.0 20.9 0.00 1.09 0.28 93 1006.6
20260507070107 8 9 4.8 12.9 0.00 1.09 0.28 94 1006.3
20260507064554 8 313 1.6 9.7 0.00 1.09 0.28 94 1006.2
20260507063059 8 33 4.8 12.9 0.00 1.09 0.28 94 1005.9
20260507061550 8 352 3.2 9.7 0.00 1.09 0.28 94 1006.0
20260507060050 8 38 3.2 11.3 0.00 1.09 0.28 95 1005.9
20260507054553 8 0 1.6 6.4 0.00 1.09 0.28 95 1005.8
20260507053051 8 338 3.2 12.9 0.00 1.09 0.28 95 1005.7
20260507051548 8 336 3.2 14.5 0.03 1.09 0.28 95 1005.8
20260507050053 8 26 4.8 16.1 0.25 1.09 0.28 95 1005.6
20260507044546 9 13 3.2 24.1 0.30 1.09 0.28 95 1005.8
20260507043054 10 337 8.0 25.7 0.30 1.09 0.28 95 1005.6
20260507041552 11 26 4.8 22.5 0.28 1.07 0.25 95 1005.6
20260507040058 12 16 3.2 12.9 0.05 0.84 0.03 95 1005.7
20260507034547 12 236 4.8 12.9 0.00 0.79 0.79 95 1005.0
20260507033049 12 235 6.4 14.5 0.00 0.79 0.79 95 1004.7
20260507031548 12 247 9.7 16.1 0.00 0.79 0.79 95 1004.6
20260507030048 12 207 8.0 16.1 0.00 0.79 0.79 95 1004.8
20260507024548 12 223 6.4 12.9 0.00 0.79 0.79 95 1004.8
20260507023051 11 197 6.4 16.1 0.03 0.79 0.79 95 1005.0
20260507021549 11 202 6.4 14.5 0.03 0.79 0.79 95 1005.0